Starlink 2340

decayed
NORAD ID: 47882 Int'l Des: 2021-021 Owner: SPXS Country: US Constellation: starlink
LEOCIRCULAR
Group

About Starlink 2340

Description loading...

Altitude History

Altitude vs Time

uPlot chart will show altitude changes over time

Two-Line Element Set

1 47882U 21021Y 25346.99769527 .12719400 11834-4 50432-2 0 9990
2 47882 53.0135 196.2277 0007113 237.1020 122.9335 16.22920402264767
Epoch: Dec 12, 2025 • Age: 1285 hours

Current Status

Position data unavailable
Launch Date Mar 14, 2021
Age 4.8 years
Decay Date Dec 13, 2025
Type internet

Technical Details

Classification Payload
Mass 260.00 kg
Dry Mass 248.00 kg
Total Mass 260.00 kg
Length 0.20 m
Diameter 2.80 m
Span 9.00 m
Shape Box + pan
Manufacturer SPXS
Bus Type Starlink
Phase Status Reentered
Owner/State SPXS/US

Large Constellations

Loading constellations...